Regional Weather Roundup
Issued by NWS Upton, NY

Current Version | Previous Version | Graphics & Text | Print | Product List | Glossary Off
Versions: 1 2 3 4 5 6 7 8 9 10 11 12 13 14 15 16 17 18 19 20 21 22 23 24 25 26 27 28 29 30 31 32 33 34 35 36 37 38 39 40 41 42 43 44 45 46 47 48 49 50
000 ASUS41 KOKX 220418 RWROKX REGIONAL WEATHER ROUNDUP NATIONAL WEATHER SERVICE NEW YORK NY 1200 AM EDT FRI MAY 22 2015 NOTE: "FAIR" INDICATES FEW OR NO CLOUDS BELOW 12,000 FEET WITH NO SIGNIFICANT WEATHER AND/OR OBSTRUCTIONS TO VISIBILITY. NYZ071-072-176-178-NJZ106-104-220500- NEW YORK CITY METRO AREA CITY SKY/WX TMP DP RH WIND PRES REMARKS CENTRAL PARK CLOUDY 55 46 71 VRB3 29.91F LAGUARDIA APRT CLOUDY 54 45 71 SW7 29.88F KENNEDY INTL CLOUDY 53 45 74 SW6 29.90S NEWARK/LIBERTY CLOUDY 54 48 80 SW5 29.89F BRNX BOT. GARD N/A 54 45 71 SW6 29.90S TETERBORO CLOUDY 54 46 74 SW6 29.88F $$ NYZ177-179-078>081-220500- LONG ISLAND NEW YORK CITY SKY/WX TMP DP RH WIND PRES REMARKS FARMINGDALE LGT RAIN 52 45 77 SW7 29.89F ISLIP LGT RAIN 52 45 77 S5 29.87F SHIRLEY LGT RAIN 50 47 89 S5 29.89F WESTHAMPTON LGT RAIN 49 47 93 S3 29.90F MONTAUK POINT N/A 51 47 86 CALM 29.89F $$ NYZ052-065-067-220500- HUDSON VALLEY CITY SKY/WX TMP DP RH WIND PRES REMARKS WHITE PLAINS CLOUDY 51 43 74 CALM 29.87F NEWBURGH MOCLDY 54 45 71 SW6 29.88F MONTGOMERY CLOUDY 54 44 69 SW6 29.87S POUGHKEEPSIE CLOUDY 56 43 61 SE3 29.85F ALBANY LGT RAIN 57 39 51 W8 29.85F $$ NJZ001-105-106-008-010-013-015-019>022-104-220500- NEW JERSEY CITY SKY/WX TMP DP RH WIND PRES REMARKS NEWARK/LIBERTY CLOUDY 54 48 80 SW5 29.89F TETERBORO CLOUDY 54 46 74 SW6 29.88F CALDWELL CLOUDY 53 46 77 SW3 29.89F MORRISTOWN CLOUDY 54 46 76 S3 29.89F SOMERVILLE CLOUDY 52 47 83 CALM 29.88S SUSSEX CLOUDY 53 43 68 CALM 29.89F ANDOVER N/A 51 43 74 SW5 29.89S TRENTON CLOUDY 51 49 92 SW3 29.89F FOG MILLVILLE CLOUDY 51 50 96 N5 29.91S ATLANTIC CITY CLOUDY 50 48 93 NW6 29.90S WRIGHTSTOWN CLOUDY 51 51 99 W3 29.88S TOMS RIVER CLOUDY 50 48 93 CALM 29.90S BELMAR CLOUDY 50 45 81 CALM 29.89F $$ PAZ047>061-062-071-220500- EASTERN PENNSYLVANIA CITY SKY/WX TMP DP RH WIND PRES REMARKS PHILADELPHIA CLOUDY 54 47 77 NW5 29.92S ALLENTOWN CLOUDY 53 42 66 W3 29.90S SCRANTON CLOUDY 51 43 74 SW6 29.90F $$ CTZ002-004>006-009-010-012-RIZ004-006-007-MAZ004-011-015-220500- SOUTHERN NEW ENGLAND IN CT CITY SKY/WX TMP DP RH WIND PRES REMARKS BRADLEY INTL CLOUDY 55 43 63 S9 29.86F HARTFORD CLOUDY 54 44 69 S6 29.87F DANBURY CLOUDY 51 43 74 SW5 29.89F WTRBRY/OXFORD CLOUDY 50 43 76 S3 29.90S BRIDGEPORT MOCLDY 53 45 74 W5 29.88F MERIDEN CLOUDY 51 45 79 S3 29.88F NEW HAVEN CLOUDY 53 46 77 VRB3 29.88F CHESTER CLOUDY 50 43 76 CALM 29.88S GROTON LGT RAIN 51 47 86 SE5 29.88F WILLIMANTIC CLOUDY 53 39 59 S3 29.88F IN RI CITY SKY/WX TMP DP RH WIND PRES REMARKS PROVIDENCE CLOUDY 53 41 63 S7 29.89F BLOCK ISLAND CLOUDY 50 45 81 S7 29.89F WESTERLY LGT RAIN 51 47 86 S5 29.89F IN MA CITY SKY/WX TMP DP RH WIND PRES REMARKS BOSTON CLOUDY 55 39 54 S14 29.86F WORCESTER CLOUDY 51 37 58 SW7 29.86F WESTFIELD CLOUDY 54 40 59 SE5 29.86F PROVINCETOWN CLOUDY 54 45 71 SW12G18 29.90S NANTUCKET LGT RAIN 51 47 86 SW5 29.93F $$ ANZ330-335-338-340-345-350-353-355-220500- COASTAL MARINE OBSERVATIONS STATION/POSITION TIME SKY/WX TEMP WIND PRES VSBY WAVE AIR SEA DIR/SP/G HT/PER (UTC) (F) (DEG/KT/KT) (MB) (MI) (FT/S) NY HARB ENTRANCE 0350 52 56 200/ 6/ 6 1011.8 1/ 8 4S FIRE IS 0303 53 N/A 1/ 8 20S FIRE ISLAND 0350 49 54 CALM / 2 1011.9 1/ 9 GREAT SOUTH BAY 0300 53 63 200/ 4/ 6 N/A 23SW MTP 0350 50 54 CALM / 2 1012.0 1/ 8 HUDSON CANYON NOT AVBL KINGS POINT 0300 53 54 190/ 6/ 7 1011.6 CENTRAL LI SOUND NOT AVBL EASTERN LI SOUND 0300 51 300/ 4/ 4 N/A ROBBINS REEF 0300 53 210/ 5/ 6 1011.2 $$ >>>>>>>>>>>>>>>>>>>>>>>>>>>> KEY <<<<<<<<<<<<<<<<<<<<<<<<<<< > < > SKY/WX - SKY CONDITION/PRESENT WEATHER < > TMP - TEMPERATURE IN FAHRENHEIT < > DP - DEWPOINT IN FAHRENHEIT < > RH - RELATIVE HUMIDITY IN PERCENT < > WIND - DIRECTION AND SPEED IN MPH < > PRES - MEAN SEA LEVEL PRESSURE IN INCHES OF HG < > WCI - WIND CHILL INDEX < > VSB - VISIBILITY IN MILES < > HX - HEAT INDEX < > TC - TEMPERATURE IN CELSIUS < > VRB - VARIABLE WIND DIRECTION < > < >>>>>>>>>>>>>>>>>>>>>>>>>>>> KEY <<<<<<<<<<<<<<<<<<<<<<<<<<<

USA.gov is the U.S. government's official web portal to all federal, state and local government web resources and services.